PST,Max TemperatureF,Mean TemperatureF,Min TemperatureF,Max Dew PointF,MeanDew PointF,Min DewpointF,Max Humidity, Mean Humidity, Min Humidity, Max Sea Level PressureIn, Mean Sea Level PressureIn, Min Sea Level PressureIn, Max VisibilityMiles, Mean VisibilityMiles, Min VisibilityMiles, Max Wind SpeedMPH, Mean Wind SpeedMPH, Max Gust SpeedMPH,PrecipitationIn, CloudCover, Events, WindDirDegrees
2013-1-1,28,20,12,16,11,3,79,67,54,30.51,30.47,30.36,10,10,10,10,3,,0.01,6,,198
2013-1-2,24,20,17,12,9,7,73,62,54,30.50,30.46,30.41,10,10,10,25,11,37,0.00,4,,177
2013-1-3,28,22,17,9,7,5,63,53,43,30.40,30.33,30.27,10,10,10,32,24,46,0.00,1,,173
2013-1-4,32,24,17,10,8,3,58,46,38,30.40,30.35,30.32,10,10,10,26,19,38,0.00,5,,168
2013-1-5,28,22,17,9,6,3,58,47,40,30.35,30.27,30.18,10,10,10,37,18,51,0.00,3,,172
2013-1-6,35,28,21,16,11,9,59,47,40,30.19,30.14,30.09,10,10,10,22,15,30,0.00,5,,185
2013-1-7,30,27,24,19,16,10,74,63,47,30.12,30.07,30.03,10,7,0,29,22,36,1.82,7,,180
2013-1-8,39,34,28,27,24,18,80,68,61,30.17,30.11,30.04,10,8,1,29,14,37,0.00,6,,175
2013-1-9,42,37,30,30,27,21,70,63,57,30.04,29.84,29.70,10,10,3,33,17,40,0.13,7,,203
2013-1-10,32,29,26,23,19,18,74,65,55,29.85,29.83,29.79,10,9,1,16,10,21,0.00,8,,325
2013-1-11,26,20,15,18,12,7,74,62,54,30.16,30.03,29.85,10,10,2,21,13,23,0.00,7,,321
2013-1-12,19,12,5,10,5,-2,79,70,58,30.23,30.20,30.16,10,10,5,9,3,,0.00,4,,328
2013-1-13,24,17,10,12,8,1,79,70,54,30.33,30.29,30.23,10,10,9,9,2,,0.00,7,,323
2013-1-14,24,19,14,12,9,5,73,65,54,30.44,30.35,30.28,10,10,10,20,6,22,0.00,5,,197
2013-1-15,28,18,8,14,8,-2,79,64,50,30.60,30.56,30.45,10,10,10,14,6,,0.00,1,,224
2013-1-16,28,19,10,12,8,0,85,63,50,30.63,30.59,30.57,10,10,10,18,6,24,0.00,0,,6
2013-1-17,26,22,17,10,9,3,68,57,50,30.60,30.53,30.44,10,10,10,28,17,37,0.00,0,,174
2013-1-18,32,24,15,16,10,1,68,54,44,30.44,30.40,30.35,10,10,10,29,17,34,0.00,0,,171
2013-1-19,30,22,14,12,8,3,68,59,44,30.49,30.44,30.40,10,10,9,23,10,32,0.00,0,,347
2013-1-20,33,22,10,16,8,1,79,63,41,30.51,30.46,30.42,10,10,8,9,4,,0.00,0,,359
2013-1-21,30,21,12,10,8,0,73,55,44,30.41,30.34,30.27,10,9,7,32,13,44,0.00,0,,170
2013-1-22,32,28,23,12,10,9,54,48,44,30.28,30.21,30.15,10,10,10,36,26,46,0.00,0,,176
2013-1-23,37,34,30,19,13,9,52,43,38,30.15,30.06,29.98,10,10,10,39,26,52,0.00,4,,177
2013-1-24,41,36,30,30,24,16,70,59,44,30.22,30.17,30.10,10,10,10,24,13,31,0.00,6,,177
2013-1-25,42,40,37,32,31,30,75,70,61,30.17,30.05,29.92,10,10,7,24,15,32,0.08,8,,178
2013-1-26,44,38,32,34,28,25,80,69,49,29.95,29.89,29.86,10,10,2,15,7,24,0.00,8,,300
2013-1-27,39,32,26,32,24,19,80,71,60,30.00,29.96,29.93,10,9,1,16,3,21,0.00,7,,212
2013-1-28,35,32,30,28,25,21,81,74,64,29.97,29.92,29.87,10,7,2,10,6,,0.00,8,,136
2013-1-29,41,37,33,30,29,27,81,74,65,30.21,30.09,29.87,10,8,2,16,8,23,0.00,8,,356
2013-1-30,46,42,37,36,32,28,81,69,57,30.30,30.25,30.20,10,10,5,18,8,28,0.00,8,,333
2013-1-31,48,42,37,37,33,30,81,69,58,30.31,30.27,30.22,10,10,10,10,3,,0.00,8,,183